Location: Frankfurt+am+Main
(50.1100°N, 8.4815°E)
Time: 02:49:50
(UTC+01:00)

ISS - Pass Details

Date: 09 January 2018
Orbit: 402 x 407 km, 51.6° (Epoch: 18 January)

Event Time Altitude Azimuth Distance (km) Brightness Sun altitude
Exits shadow 07:21:27 13° 280° (W) 1,288 -1.9 -9.5°
Maximum altitude 07:24:11 51° 206° (SSW) 521 -3.3 -9.1°
Drops below altitude 10° 07:27:24 10° 129° (SE) 1,465 0.5 -8.6°
Sets 07:29:30 0° 124° (SE) 2,324 2.2 -8.3°
